DW0931 Weather Reports


Display with metric or nautical units.
time (UTC)temp
F
wind
direction
speed
MPH
gust
MPH
rain 1hr
in
rain 24hr
in
rain mn
in
humidity
%
barometer
mb
20260507135754 70 5 0.0 0.0 0.00 0.00 0.00 18 1011.3
20260507134753 68 5 0.0 0.0 0.00 0.00 0.00 21 1011.1
20260507133746 66 5 0.0 0.0 0.00 0.00 0.00 23 1011.1
20260507132747 65 5 0.0 0.0 0.00 0.00 0.00 29 1011.2
20260507131738 65 5 0.0 0.0 0.00 0.00 0.00 28 1011.1
20260507130722 65 5 0.0 0.0 0.00 0.00 0.00 28 1011.0
20260507125715 65 5 0.0 0.0 0.00 0.00 0.00 28 1011.0
20260507124704 66 5 0.0 0.0 0.00 0.00 0.00 28 1011.0
20260507124655 65 5 0.0 0.0 0.00 0.00 0.00 28 1010.9
20260507122654 65 5 0.0 0.0 0.00 0.00 0.00 29 1010.8
20260507121652 65 5 0.0 0.0 0.00 0.00 0.00 29 1010.7
20260507120642 65 5 0.0 0.0 0.00 0.00 0.00 29 1010.8
20260507115624 66 5 0.0 0.0 0.00 0.00 0.00 28 1010.9
20260507114624 66 5 0.0 0.0 0.00 0.00 0.00 28 1011.0
20260507113621 67 5 0.0 0.0 0.00 0.00 0.00 27 1011.1
20260507112616 67 5 0.0 0.0 0.00 0.00 0.00 27 1011.2
20260507111554 67 5 0.0 0.0 0.00 0.00 0.00 27 1011.2
20260507111548 67 5 0.0 0.0 0.00 0.00 0.00 27 1011.1
20260507105538 66 5 0.0 0.0 0.00 0.00 0.00 28 1011.3
20260507104531 65 5 0.0 0.0 0.00 0.00 0.00 28 1011.3
20260507103623 65 5 0.0 0.0 0.00 0.00 0.00 29 1011.3
20260507101510 65 5 0.0 0.0 0.00 0.00 0.00 29 1011.7
20260507095502 65 5 0.0 0.0 0.00 0.00 0.00 28 1011.8
20260507094457 64 5 0.0 0.0 0.00 0.00 0.00 29 1011.8
20260507093442 64 5 0.0 0.0 0.00 0.00 0.00 29 1011.9
20260507092443 64 5 0.0 0.0 0.00 0.00 0.00 30 1011.9
20260507091436 64 5 0.0 0.0 0.00 0.00 0.00 30 1011.9
20260507085423 63 5 0.0 0.0 0.00 0.00 0.00 31 1012.2
20260507084412 63 5 0.0 0.0 0.00 0.00 0.00 31 1012.2
20260507083404 63 5 0.0 0.0 0.00 0.00 0.00 31 1012.3
20260507082456 63 5 0.0 0.0 0.00 0.00 0.00 32 1012.4
20260507080330 63 5 0.0 0.0 0.00 0.00 0.00 32 1012.3
20260507075310 63 5 0.0 0.0 0.00 0.00 0.00 32 1012.3
20260507074236 63 5 0.0 0.0 0.00 0.00 0.00 32 1012.3
20260507073200 63 5 0.0 0.0 0.00 0.00 0.00 31 1012.3
20260507073147 63 5 0.0 0.0 0.00 0.00 0.00 32 1012.4
20260507071141 64 5 0.0 0.0 0.00 0.00 0.00 32 1012.5
20260507070138 64 5 0.0 0.0 0.00 0.00 0.00 31 1012.5
20260507065138 64 5 0.0 0.0 0.00 0.00 0.00 31 1012.5
20260507064131 64 5 0.0 0.0 0.00 0.00 0.00 31 1012.5
20260507063133 65 5 0.0 0.0 0.00 0.00 0.00 31 1012.4
20260507062123 65 5 0.0 0.0 0.00 0.00 0.00 31 1012.4
20260507061100 65 5 0.0 0.0 0.00 0.00 0.00 30 1012.5
20260507060056 66 5 0.0 0.0 0.00 0.00 0.00 30 1012.4
20260507055053 66 5 0.0 0.0 0.00 0.00 0.00 29 1012.5
20260507055049 66 5 0.0 0.0 0.00 0.00 0.00 30 1012.4
20260507053049 67 5 0.0 0.0 0.00 0.00 0.00 29 1012.4
20260507053045 67 5 0.0 0.0 0.00 0.00 0.00 28 1012.4
20260507051023 68 5 0.0 0.0 0.00 0.00 0.00 27 1012.4
20260507051014 68 5 0.0 0.0 0.00 0.00 0.00 26 1012.4
20260507045003 69 5 0.0 0.0 0.00 0.00 0.00 26 1012.4
20260507044000 69 5 0.0 0.0 0.00 0.00 0.00 26 1012.3
20260507042958 70 5 0.0 0.0 0.00 0.00 0.00 25 1011.9
20260507042954 69 5 0.0 0.0 0.00 0.00 0.00 25 1012.2
20260507040945 71 5 0.0 0.0 0.00 0.00 0.00 24 1011.8
20260507035931 72 5 0.0 0.0 0.00 0.00 0.00 24 1011.8
20260507034923 73 5 0.0 0.0 0.00 0.00 0.00 23 1011.6
20260507033931 74 5 0.0 0.0 0.00 0.00 0.00 22 1011.6
20260507032913 75 5 0.0 0.0 0.00 0.00 0.00 23 1011.5
20260507032004 76 5 0.0 0.0 0.00 0.00 0.00 22 1011.2
20260507025852 76 5 0.0 0.0 0.00 0.00 0.00 21 1010.9
20260507024858 77 5 0.0 0.0 0.00 0.00 0.00 20 1010.8
20260507024854 77 5 0.0 0.0 0.00 0.00 0.00 20 1010.9
20260507022847 78 5 0.0 0.0 0.00 0.00 0.00 19 1010.6
20260507021849 78 5 0.0 0.0 0.00 0.00 0.00 20 1010.5
20260507021843 78 5 0.0 0.0 0.00 0.00 0.00 19 1010.6
20260507015841 79 5 0.0 0.0 0.00 0.00 0.00 19 1010.5
20260507014821 79 5 0.0 0.0 0.00 0.00 0.00 19 1010.5
20260507013807 79 5 0.0 0.0 0.00 0.00 0.00 18 1010.3
20260507012749 80 5 0.0 0.0 0.00 0.00 0.00 18 1010.2
20260507011749 80 5 0.0 0.0 0.00 0.00 0.00 18 1010.2
20260507010749 80 5 0.0 0.0 0.00 0.00 0.00 18 1010.1
20260507004747 82 5 0.0 0.0 0.00 0.00 0.00 17 1010.0
20260507003745 83 5 0.0 0.0 0.00 0.00 0.00 16 1010.1
20260507003732 84 5 0.0 0.0 0.00 0.00 0.00 16 1010.1
20260507001731 85 5 0.0 0.0 0.00 0.00 0.00 15 1010.1
20260507000728 85 5 0.0 0.0 0.00 0.00 0.00 15 1010.0
20260506235714 86 5 0.0 0.0 0.00 0.00 0.00 15 1010.1
20260506234713 87 5 0.0 0.0 0.00 0.00 0.00 14 1010.1
20260506233713 87 5 0.0 0.0 0.00 0.00 0.00 14 1010.2
20260506232651 88 5 0.0 0.0 0.00 0.00 0.00 14 1010.3
20260506231649 88 5 0.0 0.0 0.00 0.00 0.00 14 1010.2
20260506230649 88 5 0.0 0.0 0.00 0.00 0.00 14 1010.5
20260506225644 88 5 0.0 0.0 0.00 0.00 0.00 14 1010.7
20260506224643 88 5 0.0 0.0 0.00 0.00 0.00 14 1010.7
20260506223634 89 5 0.0 0.0 0.00 0.00 0.00 14 1010.9
20260506222629 88 5 0.0 0.0 0.00 0.00 0.00 15 1011.0
20260506221627 87 5 0.0 0.0 0.00 0.00 0.00 14 1011.2
20260506220613 87 5 0.0 0.0 0.00 0.00 0.00 15 1011.3
20260506215547 87 5 0.0 0.0 0.00 0.00 0.00 15 1011.4
20260506214544 86 5 0.0 0.0 0.00 0.00 0.00 16 1011.6
20260506213544 86 5 0.0 0.0 0.00 0.00 0.00 16 1011.7
20260506212542 85 5 0.0 0.0 0.00 0.00 0.00 16 1011.9
20260506211544 84 5 0.0 0.0 0.00 0.00 0.00 17 1012.0
20260506210542 84 5 0.0 0.0 0.00 0.00 0.00 17 1012.4
20260506205543 85 5 0.0 0.0 0.00 0.00 0.00 17 1012.4
20260506204542 84 5 0.0 0.0 0.00 0.00 0.00 16 1012.6
20260506203537 84 5 0.0 0.0 0.00 0.00 0.00 16 1012.7
20260506202518 85 5 0.0 0.0 0.00 0.00 0.00 16 1012.7
20260506201505 85 5 0.0 0.0 0.00 0.00 0.00 18 1013.0
20260506200454 84 5 0.0 0.0 0.00 0.00 0.00 17 1013.0
20260506195454 83 5 0.0 0.0 0.00 0.00 0.00 19 1013.1
20260506194451 83 5 0.0 0.0 0.00 0.00 0.00 17 1013.2
20260506193451 83 5 0.0 0.0 0.00 0.00 0.00 18 1013.5
20260506192444 83 5 0.0 0.0 0.00 0.00 0.00 18 1013.5
20260506191532 81 5 0.0 0.0 0.00 0.00 0.00 19 1013.5
20260506185458 79 5 0.0 0.0 0.00 0.00 0.00 21 1013.7
20260506183350 78 5 0.0 0.0 0.00 0.00 0.00 22 1014.0
20260506182351 77 5 0.0 0.0 0.00 0.00 0.00 22 1014.1
20260506181351 78 5 0.0 0.0 0.00 0.00 0.00 22 1014.1
20260506180344 78 5 0.0 0.0 0.00 0.00 0.00 23 1014.3
20260506175345 77 5 0.0 0.0 0.00 0.00 0.00 24 1014.4
20260506174331 76 5 0.0 0.0 0.00 0.00 0.00 24 1014.5
20260506173327 76 5 0.0 0.0 0.00 0.00 0.00 24 1014.5
20260506173319 75 5 0.0 0.0 0.00 0.00 0.00 26 1014.5
20260506171303 74 5 0.0 0.0 0.00 0.00 0.00 26 1014.5
20260506170259 74 5 0.0 0.0 0.00 0.00 0.00 27 1014.5
20260506165255 73 5 0.0 0.0 0.00 0.00 0.00 27 1014.3
20260506164251 73 5 0.0 0.0 0.00 0.00 0.00 28 1014.5
20260506163244 72 5 0.0 0.0 0.00 0.00 0.00 29 1014.4
20260506162245 71 5 0.0 0.0 0.00 0.00 0.00 30 1014.4
20260506161236 71 5 0.0 0.0 0.00 0.00 0.00 29 1014.2
20260506160219 70 5 0.0 0.0 0.00 0.00 0.00 31 1014.2
20260506155159 69 5 0.0 0.0 0.00 0.00 0.00 31 1014.2
20260506154149 69 5 0.0 0.0 0.00 0.00 0.00 32 1014.3
20260506153139 68 5 0.0 0.0 0.00 0.00 0.00 32 1014.3
20260506152126 68 5 0.0 0.0 0.00 0.00 0.00 33 1014.3
20260506152120 67 5 0.0 0.0 0.00 0.00 0.00 34 1014.2
20260506150115 66 5 0.0 0.0 0.00 0.00 0.00 35 1014.3
20260506145113 64 5 0.0 0.0 0.00 0.00 0.00 38 1014.2
20260506145109 65 5 0.0 0.0 0.00 0.00 0.00 36 1014.2
20260506143100 62 5 0.0 0.0 0.00 0.00 0.00 39 1014.3
20260506142054 61 5 0.0 0.0 0.00 0.00 0.00 42 1014.1
20260506141054 59 5 0.0 0.0 0.00 0.00 0.00 46 1014.0
20260506140054 57 5 0.0 0.0 0.00 0.00 0.00 48 1013.6